Regional Weather Roundup
Issued by NWS

Home | Current Version | Previous Version | Graphics & Text | Print | Product List | Glossary On
Versions: 1 2 3 4 5 6 7 8 9 10 11 12 13 14 15 16 17 18 19 20 21 22 23 24 25 26 27 28 29 30 31 32 33 34 35 36 37 38 39 40 41 42 43 44 45 46 47 48 49 50
000
ASUS43 KLOT 230603
RWRIL

ILLINOIS REGIONAL WEATHER ROUNDUP
NATIONAL WEATHER SERVICE CHICAGO/ROMEOVILLE IL
1200 AM CST FRI FEB 23 2018

NOTE: "FAIR" INDICATES FEW OR NO CLOUDS BELOW 12,000 FEET WITH NO
SIGNIFICANT WEATHER AND/OR OBSTRUCTIONS TO VISIBILITY.

* THESE STATIONS ARE NOT UNDER NWS QUALITY CONTROL. THEY ALSO MAY NOT
  REPORT WEATHER SUCH AS PRECIPITATION OR FOG.

ILZ001-002-007-009-015-016-024-230700-
NORTHWEST ILLINOIS

CITY           SKY/WX    TMP DP  RH WIND       PRES   REMARKS
MOLINE         FOG       37  37 100 E7        30.17F VSB 3/4 WCI  32
6HR MIN TEMP:  37; 6HR MAX TEMP:  38; 6HR PCP:  0.01;

STERLING*      CLOUDY    37  36  96 E8        30.21F FOG     WCI  31
SAVANNA*       CLOUDY    35  35  99 E8        30.21F FOG     WCI  29
$$

ILZ003-004-008-010-011-017-018-230700-
NORTH CENTRAL ILLINOIS

CITY           SKY/WX    TMP DP  RH WIND       PRES   REMARKS
ROCKFORD       DRIZZLE   36  34  92 E7        30.25F FOG     WCI  30
6HR MIN TEMP:  35; 6HR MAX TEMP:  36; 6HR PCP:  0.02;

FREEPORT*      DRIZZLE   33  33 100 E9        30.24F WCI  26
ROCHELLE*      CLOUDY    37  37 100 SE8       30.24F FOG     WCI  30
DE KALB*       CLOUDY    37  37  98 SE12      30.25F FOG     WCI  30
PERU*          CLOUDY    40  40  98 SE13      30.23F FOG
$$

ILZ005-006-012>014-019>023-230700-
NORTHEAST ILLINOIS

CITY           SKY/WX    TMP DP  RH WIND       PRES   REMARKS
CHICAGO-OHARE  CLOUDY    39  35  86 SE13      30.27F FOG     WCI  31
6HR MIN TEMP:  38; 6HR MAX TEMP:  40;

CHICAGO-MIDWAY CLOUDY    40  38  93 SE10      30.28F FOG
6HR MIN TEMP:  40; 6HR MAX TEMP:  41;

AURORA         CLOUDY    40  38  93 SE10      30.26F FOG
6HR MIN TEMP:  38; 6HR MAX TEMP:  40;

LANSING*       CLOUDY    38  38 100 SE9       30.30F FOG     WCI  32
JOLIET*        CLOUDY    41  41  99 SE9       30.27F FOG
WAUKEGAN       CLOUDY    36  34  92 SE10      30.29F WCI  28
6HR MIN TEMP:  36; 6HR MAX TEMP:  37;

DUPAGE AIRPORT CLOUDY    39  38  96 SE10      30.26F FOG     WCI  32
6HR MIN TEMP:  37; 6HR MAX TEMP:  39;

KANKAKEE*      CLOUDY    40  39  99 SE10      30.29F FOG
WHEELING       CLOUDY    39  36  89 SE8       30.29F WCI  33
6HR MIN TEMP:  38; 6HR MAX TEMP:  40;

MORRIS*        CLOUDY    40  39  97 SE10      30.26F FOG
ROMEOVILLE*    CLOUDY    39  38  97 SE12      30.27F FOG     WCI  32
NORTHERLY ISL    N/A     36  34  92 SE8         N/A  WCI  30
$$

LMZ740>746-230700-
SOUTHERN LAKE MICHIGAN

STATION/POSITION SKY/WX   TEMP    WIND        PRES    VSBY  WAVE
                          AIR SEA DIR/SP/G                  HT/PER
                          (F)     (DEG/KT/KT) (MB)    (MI)  (FT/S)
HARRISON CRIB              36     130/ 17/ 18   N/A
BURNHAM HARBOR             36     120/  7/ 10   N/A
CALUMET HARBOR             39     120/ 14/ 18 1025.3F
BURNS HARBOR               39     120/  9/ 14 1026.4F
MICHIGAN CITY              37     120/ 13/ 18   N/A
$$

ILZ025>027-034>036-040-047-049-050-058-095>099-230700-
WEST-CENTRAL ILLINOIS

CITY           SKY/WX    TMP DP  RH WIND       PRES   REMARKS
QUINCY         CLOUDY    38  38 100 SE9       30.14F FOG     WCI  31
GALESBURG*     FOG       40  40 100 SE6       30.18F VSB 1/4
MACOMB*        FOG       40  40 100 SE9       30.20S VSB 1/4
JACKSONVILLE*  CLOUDY    43  42  98 SE9       30.17F FOG
PITTSFIELD*    FOG       39  39 100 E5        30.16F VSB 1/4
$$

ILZ028>032-037-038-041>044-048-051>054-059>061-230700-
CENTRAL ILLINOIS

CITY           SKY/WX    TMP DP  RH WIND       PRES   REMARKS
BLOOMINGTON    FOG       42  41  96 SE13      30.23F VSB 3/4
DECATUR        CLOUDY    44  44 100 SE8       30.19F
PEORIA         FOG       42  42 100 SE8       30.20F VSB 1/2
6HR MIN TEMP:  42; 6HR MAX TEMP:  43;

LACON*         CLOUDY    41  41 100 E6        30.21F FOG
LINCOLN*       FOG       44  44 100 E7        30.19F VSB 1
SPRINGFIELD    CLOUDY    46  44  93 SE12      30.18F
6HR MIN TEMP:  44; 6HR MAX TEMP:  46;

TAYLORVILLE    CLOUDY    44  44  99 SE10      30.17F
6HR MIN TEMP:  43; 6HR MAX TEMP:  45; 6HR PCP:  0.01;

$$

ILZ033-039-045-046-055>057-062-063-230700-
EAST-CENTRAL ILLINOIS

CITY           SKY/WX    TMP DP  RH WIND       PRES   REMARKS
CHAMPAIGN      CLOUDY    43  43 100 SE10      30.23F FOG
DANVILLE*      CLOUDY    42  42  99 SE10      30.23F FOG
RANTOUL*       CLOUDY    44  44  99 SE13      30.24F FOG
MATTOON        CLOUDY    44  44 100 SE13      30.20F FOG
PARIS*         CLOUDY    43  43 100 SE9       30.22F FOG
$$

ILZ079-100>102-230700-
SOUTHWEST ILLINOIS

CITY           SKY/WX    TMP DP  RH WIND       PRES   REMARKS
ALTON          LGT RAIN  44  44 100 SE9       30.18S
BELLEVILLE     CLOUDY    46  45  93 SE8       30.18F
CAHOKIA*       CLOUDY    45  43  93 SE9         N/A
SPARTA*        CLOUDY    45  45 100 SE10      30.20F
$$

ILZ064>066-069>071-074>076-080>082-084>086-088>090-092>094-230700-
SOUTH-CENTRAL ILLINOIS

CITY           SKY/WX    TMP DP  RH WIND       PRES   REMARKS
CARBONDALE     RAIN      47  47 100 SE3       30.23  FOG
6HR MIN TEMP:  46; 6HR MAX TEMP:  48;

CAIRO*         LGT RAIN  49  49  99 CALM      30.23R
EFFINGHAM*     LGT RAIN  46  46 100 E12       30.20F VSB 1
MARION         HVY RAIN  48  47  98 CALM      30.25R
MT. VERNON     LGT RAIN  47  46  97 E7        30.23F
CENTRALIA*     LGT RAIN  47  47  99 SE13G18   30.19F
SALEM*         LGT RAIN  48  46  95 SE10G18   30.21S
METROPOLIS*    DRIZZLE   51  50  98 E8        30.23F
$$

ILZ067-068-072-073-078-083-087-091-230700-
SOUTHEAST ILLINOIS

CITY           SKY/WX    TMP DP  RH WIND       PRES   REMARKS
LAWRENCEVILLE  LGT RAIN  47  46  97 E12       30.27F FOG
FLORA*         RAIN      48  47  97 SE12      30.23F
FAIRFIELD*     DRIZZLE   47  47 100 CALM      30.24F
HARRISBURG*    HVY RAIN  49  49 100 SE10      30.24R
ROBINSON*      LGT RAIN  45  45 100 E9        30.28F
CARMI*         RAIN      49  49 100 E8        30.24F
$$

ABBREVIATIONS USED IN REMARKS
   TC - TEMPERATURE IN CELSIUS
  WCI - WIND CHILL INDEX
   HX - HEAT INDEX
  VSB - VISIBILITY
$$





USA.gov is the U.S. government's official web portal to all federal, state and local government web resources and services.